Content
SEND FEEDBACK

Daily
Averages
Monthly
Summary
United States of America

CHELSEA, VERMONT


Home > North America > United States > Vermont
Elevation: 839 feet     Latitude: 43 59N     Longitude: 072 27W

WEATHER
 
SELECT A DAY
Number of Records: 247,093;   Date Range: 1/1/95 - 8/28/14
 
SHARE

PRINT THIS DATA

[ ← Previous Day ]
WEATHER ALMANAC - JANUARY 31, 2013
[ Next Day → ]
[ °C ]   °F
Weather ElementAverageHighLow
Temperature37.5 °F48.2 °F (7:36 am)21 °F (11:51 pm)
Dewpoint29.1 °F48 °F (6:51 am)5 °F (10:51 pm)
Humidity73.9 %100 % (12:51 am)48 % (2:51 pm)
Barometer29.15 in29.53 in (11:51 pm)28.87 in (7:36 am)
Wind Speed14.5 mph25.3 mph (2:51 pm)
Wind Gust43.7 mph (3:51 pm)
Weather ElementAverage
Visibility8.6 mi
Wind DirectionWSW (238.7 °)

Weather ElementTotal
Precipitation0.56 in
Heating Degree Days30.4 (Base 65)
Averaged from 30 records on January 31, 2013
WEATHER CONDITIONS BREAKOUT
WIND DIRECTION BREAKOUT
WEATHER BY HOUR - JANUARY 31, 2013
[ °C ]   °F
Local TimeTemperatureDewpointHumidityBarometerVisibilityWind DirectionWind SpeedGust SpeedPrecipitationEventsConditions
12:51 AM46.0 °F46.0 °F100 %29.31 in8.0 miSouth (180°)4.6 mph0.03 inRainLight Rain
1:51 AM46.0 °F45.0 °F96 %29.22 in10.0 miSouth (170°)17.3 mph0.02 inRainLight Rain
2:51 AM46.9 °F46.0 °F97 %29.13 in10.0 miSouth (180°)10.4 mph0.03 inRainLight Rain
3:51 AM46.9 °F46.9 °F100 %29.07 in4.0 miSouth (190°)9.2 mph0.06 inRainLight Rain
4:20 AM46.4 °F46.4 °F100 %29.01 in5.0 miSouth (190°)6.9 mph0.02 inRainLight Rain
4:51 AM48.0 °F46.9 °F96 %28.99 in6.0 miSSW (200°)8.1 mph0.05 inRainLight Rain
5:51 AM48.0 °F46.9 °F96 %28.95 in5.0 miSSW (200°)8.1 mph0.09 inRainRain
6:51 AM48.0 °F48.0 °F100 %28.89 in9.0 miSouth (170°)10.4 mph0.07 inRainLight Rain
7:36 AM48.2 °F46.4 °F93 %28.87 in2.5 miWSW (240°)10.4 mph17.3 mph0.04 inRainRain
7:41 AM48.2 °F46.4 °F93 %28.87 in3.0 miSW (230°)8.1 mph17.3 mph0.04 inRainRain
7:51 AM48.0 °F46.9 °F96 %28.87 in6.0 miSSW (210°)16.1 mph26.5 mph0.05 inRainLight Rain
8:30 AM42.8 °F39.2 °F87 %28.93 in10.0 miWSW (250°)10.4 mph23.0 mph0.01 inRainLight Rain
8:51 AM42.1 °F37.0 °F82 %28.98 in10.0 miWSW (240°)16.1 mph28.8 mph0.01 inRainLight Rain
9:27 AM39.2 °F33.8 °F81 %28.99 in9.0 miWSW (250°)17.3 mph27.6 mph0.01 inRainLight Rain
9:51 AM37.0 °F34.0 °F89 %29.03 in10.0 miWest (270°)10.4 mph17.3 mph0.03 inRainLight Rain
10:12 AM37.4 °F32.0 °F81 %29.02 in10.0 miWSW (250°)15.0 mph26.5 mph0.00 inOvercast
10:51 AM37.9 °F28.0 °F68 %29.07 in10.0 miWSW (250°)13.8 mph35.7 mph0.00 inOvercast
11:51 AM37.0 °F23.0 °F57 %29.11 in10.0 miWSW (240°)23.0 mph40.3 mphClear
12:51 PM36.0 °F19.0 °F50 %29.14 in10.0 miWSW (240°)17.3 mph32.2 mphOvercast
1:51 PM33.1 °F18.0 °F54 %29.17 in10.0 miWest (270°)20.7 mph36.8 mphScattered Clouds
2:51 PM32.0 °F14.0 °F48 %29.24 in10.0 miWSW (250°)25.3 mph36.8 mphOvercast
3:51 PM30.0 °F12.9 °F49 %29.29 in10.0 miWest (280°)24.2 mph43.7 mphOvercast
4:51 PM28.9 °F12.0 °F49 %29.31 in10.0 miWest (270°)17.3 mph31.1 mphOvercast
5:51 PM28.0 °F10.9 °F49 %29.36 in10.0 miWSW (250°)16.1 mph27.6 mphOvercast
6:51 PM27.0 °F12.0 °F53 %29.40 in10.0 miWest (260°)10.4 mph17.3 mphOvercast
7:51 PM26.1 °F12.0 °F55 %29.42 in10.0 miWest (280°)17.3 mph25.3 mphOvercast
8:51 PM24.1 °F8.1 °F51 %29.46 in10.0 miWNW (300°)18.4 mph32.2 mph0.00 inOvercast
9:51 PM23.0 °F6.1 °F48 %29.49 in10.0 miWNW (290°)23.0 mph40.3 mphOvercast
10:51 PM21.9 °F5.0 °F48 %29.52 in10.0 miWest (280°)16.1 mph31.1 mph0.00 inOvercast
11:51 PM21.0 °F5.0 °F50 %29.53 in10.0 miWest (280°)12.7 mph21.9 mphOvercast
Hourly data recorded from KMPV, located miles away from Chelsea, Vermont







STORIES FROM OUR PARTNERS